Location: Most
(50.5330°N, 13.6500°E)
Time: 03:39:20
(UTC+01:00)

ISS - Visible Passes

Search period start: 16 January 2026 00:00
Search period end: 26 January 2026 00:00
Orbit: 413 x 424 km, 51.6° (Epoch: 15 January)

Date Brightness Start Highest point End Pass type
(mag) Time Alt. Az. Time Alt. Az. Time Alt. Az.
16 Jan -2.9 17:51:01 10° SW 17:54:09 39° SSE 17:55:51 22° E visible
16 Jan -1.2 19:27:28 10° W 19:28:48 22° W 19:28:48 22° W visible
17 Jan -3.9 18:39:41 10° WSW 18:43:01 88° SSW 18:43:01 88° SSW visible
18 Jan -3.7 17:51:57 10° WSW 17:55:17 71° SSE 17:57:12 23° E visible
18 Jan -1.3 19:28:47 10° W 19:30:09 22° W 19:30:09 22° W visible
19 Jan -3.8 18:40:56 10° W 18:44:17 72° N 18:44:18 72° N visible
20 Jan -3.8 17:53:05 10° W 17:56:27 79° N 17:58:27 22° ENE visible
20 Jan -1.3 19:30:00 10° WNW 19:31:23 23° WNW 19:31:23 23° WNW visible
21 Jan -3.9 18:42:08 10° W 18:45:29 73° N 18:45:31 73° NNE visible
22 Jan -3.7 17:54:15 10° W 17:57:35 70° N 17:59:40 21° E visible
22 Jan -1.4 19:31:05 10° WNW 19:32:36 24° W 19:32:36 24° W visible
23 Jan -3.9 18:43:13 10° WNW 18:46:35 85° S 18:46:47 77° SE visible
24 Jan -3.8 17:55:19 10° WNW 17:58:41 81° N 18:01:00 19° E visible
24 Jan -1.5 19:32:12 10° W 19:33:57 25° WSW 19:33:57 25° WSW visible
25 Jan -3.1 18:44:14 10° WNW 18:47:30 51° SSW 18:48:14 41° SSE visible
